Regional Weather Roundup
Issued by NWS

Home | Current Version | Previous Version | Graphics & Text | Print | Product List | Glossary On
Versions: 1 2 3 4 5 6 7 8 9 10 11 12 13 14 15 16 17 18 19 20 21 22 23 24 25 26 27 28 29 30 31 32 33 34 35 36 37 38 39 40 41 42 43 44 45 46 47 48 49 50
000
ASUS45 KSLC 221610
RWRUT

UTAH REGIONAL WEATHER ROUNDUP
NATIONAL WEATHER SERVICE SALT LAKE CITY UT
1000 AM MDT SUN OCT 22 2017

UTZ001>011-023>025-221700-

NORTHERN UTAH

CITY           SKY/WX    TMP DP  RH WIND       PRES   REMARKS
BRIGHAM CITY   CLOUDY    52  20  29 CALM      30.38S
HILL AFB       MOSUNNY   52  22  30 S3        30.38R
LOGAN          CLOUDY    49  26  41 CALM      30.37R
OGDEN          MOSUNNY   52  22  30 S9        30.37R
SALT LAKE CITY PTSUNNY   53  24  32 SE12      30.37S
TOOELE VALLEY  SUNNY     50  23  34 S16       30.37R
WENDOVER       MOSUNNY   44  18  35 NE3       30.38R

$$

UTZ011>015-024>027-221700-

CENTRAL/NORTHEAST UTAH

CITY           SKY/WX    TMP DP  RH WIND       PRES   REMARKS
PROVO AIRPORT  MOSUNNY   47  22  37 SE9       30.43S
MOAB/CANYONLAN MOSUNNY   49  14  24 SE8       30.42R
DELTA          SUNNY     43  14  31 CALM      30.43R
PRICE          SUNNY     47  17  30 CALM      30.43R
ROOSEVELT      SUNNY     43  19  39 E3        30.43S
VERNAL         CLOUDY    42  18  37 E3        30.42R

$$

UTZ013>016-019>022-027-221700-

SOUTHERN UTAH

CITY           SKY/WX    TMP DP  RH WIND       PRES   REMARKS
BRYCE CANYON   SUNNY     46  19  34 W3        30.50S
CEDAR CITY     SUNNY     46  18  32 CALM      30.42F
MILFORD        SUNNY     42  15  33 S14       30.42R
ST GEORGE      SUNNY     52  15  23 S3        30.40R
HANKSVILLE     MOSUNNY   43  12  28 CALM      30.47R
BLANDING         N/A     49   7  18 SE3       30.51S

$$

REGIONAL REPORTS     COLORADO/ARIZONA

CITY           SKY/WX    TMP DP  RH WIND       PRES   REMARKS
CRAIG, CO      SUNNY     41  24  51 E3        30.43R
GRAND JUNCTION SUNNY     46  20  35 SE10      30.46R
RIFLE, CO      CLOUDY    36  25  64 CALM      30.48S
MONTROSE, CO   SUNNY     41  16  36 CALM      30.51R
CORTEZ, CO     SUNNY     49  12  22 E3        30.45R
COLORADO CITY    N/A     52  18  25 SE3       30.45S
PAGE, AZ       SUNNY     51  16  24 VRB5      30.43R
GRAND CANYON   SUNNY     54  12  18 CALM      30.48R
KINGMAN, AZ    SUNNY     60  14  16 N8        30.35R
FLAGSTAFF, AZ  SUNNY     50  12  21 E8        30.48R

$$

REGIONAL REPORTS    NEVADA/IDAHO/WYOMING

CITY           SKY/WX    TMP DP  RH WIND       PRES   REMARKS
LAS VEGAS, NV  SUNNY     64  18  17 CALM      30.34R
ELY, NY        SUNNY     38  25  59 S9        30.48R WCI  31
ELKO, NV       MOSUNNY   39  30  70 S7        30.42R WCI  34
POCATELLO, ID  CLOUDY    52  30  43 S16G28    30.28S
BURLEY, ID     CLOUDY    51  37  58 SW16      30.28R
FORT BRIDGER,  CLOUDY    49  29  44 W23G31    30.40S
EVANSTON, WY   CLOUDY    46  25  43 SW21G31   30.38S
ROCK SPRINGS,  MOSUNNY   43  24  47 W13G25    30.34S
KEMMERER, WY   CLOUDY    41  23  48 SW22G28   30.36R

$$



USA.gov is the U.S. government's official web portal to all federal, state and local government web resources and services.